This is the latest recevied weather packets stored in our database for station/object AD0YN. If no packets are shown the sender has not sent any weather packets the latest 10 day(s).
| Time | Temp. | Humidity | Pressure | Rain* | Wind** | Luminosity | Snow |
|---|---|---|---|---|---|---|---|
| 1777656959 | 15.56° C | 38% | 1017.5 hPa | 0 mm | - | 916 W/m² | - |
| 1777656656 | 15.56° C | 38% | 1017.5 hPa | 0 mm | - | 924 W/m² | - |
| 1777656351 | 16.11° C | 38% | 1017.5 hPa | 0 mm | - | 954 W/m² | - |
| 1777656047 | 16.11° C | 37% | 1017.6 hPa | 0 mm | - | 914 W/m² | - |
| 1777655744 | 16.11° C | 38% | 1017.6 hPa | 0 mm | - | 896 W/m² | - |
| 1777655440 | 15.56° C | 37% | 1017.8 hPa | 0 mm | - | 891 W/m² | - |
| 1777655137 | 15° C | 39% | 1017.7 hPa | 0 mm | - | 881 W/m² | - |
| 1777654834 | 15.56° C | 36% | 1017.9 hPa | 0 mm | - | 873 W/m² | - |
| 1777654532 | 15.56° C | 37% | 1017.8 hPa | 0 mm | - | 869 W/m² | - |
| 1777654229 | 15.56° C | 40% | 1017.9 hPa | 0 mm | - | 862 W/m² | - |
| 1777653927 | 15.56° C | 34% | 1017.8 hPa | 0 mm | - | 857 W/m² | - |
| 1777653624 | 15.56° C | 37% | 1017.9 hPa | 0 mm | - | 847 W/m² | - |
| 1777653320 | 16.11° C | 36% | 1017.9 hPa | 0 mm | - | 837 W/m² | - |
| 1777653017 | 15.56° C | 37% | 1018 hPa | 0 mm | - | 823 W/m² | - |
| 1777652713 | 15° C | 39% | 1018.1 hPa | 0 mm | - | 814 W/m² | - |
| 1777652410 | 15° C | 38% | 1018 hPa | 0 mm | - | 804 W/m² | - |
| 1777652108 | 14.44° C | 40% | 1017.9 hPa | 0 mm | - | 792 W/m² | - |
| 1777651804 | 14.44° C | 39% | 1018.1 hPa | 0 mm | - | 776 W/m² | - |
| 1777651501 | 15° C | 38% | 1017.9 hPa | 0 mm | - | 771 W/m² | - |
| 1777651198 | 15° C | 38% | 1017.9 hPa | 0 mm | - | 764 W/m² | - |
| 1777650894 | 15° C | 37% | 1017.9 hPa | 0 mm | - | 750 W/m² | - |
| 1777650591 | 14.44° C | 35% | 1018 hPa | 0 mm | - | 740 W/m² | - |
| 1777650289 | 14.44° C | 38% | 1018 hPa | 0 mm | - | 725 W/m² | - |
| 1777649985 | 13.89° C | 41% | 1017.9 hPa | 0 mm | - | 714 W/m² | - |
| 1777649684 | 13.89° C | 39% | 1018 hPa | 0 mm | - | 705 W/m² | - |
* Rain latest hour (hover to see other rain measurements)
** Current wind speed in m/s (hover to see current wind gust speed)